[[{"header":{"parameterUnit":"m.s-1","parameterCategory":1,"la1":30.2991,"la2":30.254,"lo1":-89.0895,"lo2":-89.0444,"dy":0.0017,"dx":0.0017,"nx":28,"ny":28,"refTime":"2024-03-01T03:00:00:Z","depth":0,"parameterNumber":2,"parameterNumberName":"U-component_of_WINDS"},"data":[0,0,0,0,0,0,0,0,0,0,0,0,0,0,0,0,0,0,0,0,0,0,0,0,0,0,0,0,0,0,0,0,0,0,0,0,0,0,0,0,0,0,0,0,0,0,0,0,0,0,0,0,0,0,0,0,0,0,-2.9321,-2.9322,0,-2.9443,-2.9444,-2.9445,-2.9469,-2.9468,-2.9467,-2.9466,-2.9591,-2.9595,-2.9599,0,0,0,0,0,0,0,0,0,0,0,0,0,-2.911,-2.9113,-2.9321,-2.9322,-2.9324,-2.9442,-2.9444,-2.9446,-2.9469,-2.9468,-2.9467,-2.9466,-2.959,-2.9594,-2.96,0,0,0,0,0,0,0,0,0,0,0,0,0,-2.9213,-2.9115,-2.932,-2.935,-2.9354,-2.9442,-2.9444,-2.9446,-2.947,-2.9468,-2.9467,-2.9465,-2.9588,-2.9594,-2.96,-2.9668,0,0,-2.9619,-2.9622,0,0,0,0,0,0,0,0,-2.9207,-2.9221,-2.9344,-2.9348,-2.9352,-2.9439,-2.9415,-2.952,-2.947,-2.9426,-2.9466,-2.9465,-2.9542,-2.9552,-2.9578,-2.9674,-2.9679,-2.962,-2.9624,-2.9627,-2.9628,0,0,0,0,0,0,0,-2.92,-2.9216,-2.9369,-2.9346,-2.9351,-2.9357,-2.937,-2.9435,-2.949,-2.9429,-2.9431,-2.9445,-2.9544,-2.9571,-2.9581,-2.9681,-2.962,-2.9625,-2.9629,-2.9632,-2.984,-2.9841,0,0,0,0,0,0,-2.9188,-2.921,-2.9365,-2.9373,-2.9275,-2.9362,-2.9377,-2.9413,-2.9489,-2.95,-2.9447,-2.9446,-2.9561,-2.9573,-2.9585,-2.967,-2.9627,-2.9632,-2.9636,-2.9838,-2.984,-2.9842,0,0,0,0,0,0,-2.9183,-2.9201,-2.936,-2.9292,-2.9313,-2.9367,-2.9407,-2.9416,-2.9444,-2.9502,-2.9512,-2.9465,-2.9561,-2.9576,-2.9647,-2.9674,-2.9635,-2.9641,-2.9836,-2.9839,-2.9841,-2.9839,0,0,0,0,0,0,-2.9177,-2.9199,-2.9225,-2.9292,-2.9316,-2.942,-2.9409,-2.9419,-2.9455,-2.9455,-2.9522,-2.9532,-2.9561,-2.9638,-2.9654,-2.9682,-2.9646,-2.9834,-2.9837,-2.984,-2.9836,-2.9841,-2.9844,0,0,0,0,0,-2.9169,-2.922,-2.9226,-2.9245,-2.9349,-2.9421,-2.9435,-2.9467,-2.9457,-2.9483,-2.9521,-2.953,-2.9669,-2.9645,-2.9663,-2.9694,-2.9832,-2.9836,-2.984,-2.9835,-2.984,-2.9844,0,0,0,0,0,0,-2.9154,-2.9229,-2.9237,-2.9311,-2.936,-2.9425,-2.9459,-2.9472,-2.9524,-2.9522,-2.956,-2.9575,-2.9644,-2.9676,-2.9648,-2.9764,-2.975,-2.9758,-2.974,-2.9745,-2.9749,-2.9739,-2.9651,0,0,0,0,0,-2.9159,-2.9211,-2.9274,-2.9333,-2.9357,-2.9404,-2.9436,-2.9457,-2.9509,-2.953,-2.9573,-2.9623,-2.9679,-2.9714,-2.9768,-2.9842,-2.9857,-2.9872,-2.9876,-2.9879,-2.9885,-2.9927,-2.9934,-2.9855,-2.9855,-2.9855,0,0,-2.917,-2.9218,-2.9248,-2.9331,-2.9371,-2.9424,-2.9421,-2.9477,-2.9517,-2.9539,-2.9608,-2.9642,-2.9701,-2.9773,-2.9808,-2.9802,-2.9911,-2.9884,-2.9886,-2.989,-2.9932,-2.9939,-2.9946,-2.9857,-2.9857,-2.9856,0,0,-2.9217,-2.9259,-2.9312,-2.9353,-2.9414,-2.9446,-2.9459,-2.9523,-2.9546,-2.9617,-2.9634,-2.9683,-2.9777,-2.9818,-2.9852,-2.9917,-2.9927,-2.9933,-2.9954,-2.9994,-3.0,-3.0006,-3.0029,-3.0037,-2.9939,-2.9939,-2.9939,0,-2.9223,-2.9304,-2.9338,-2.9394,-2.943,-2.9453,-2.9508,-2.9546,-2.9621,-2.9646,-2.9639,-2.9758,-2.98,-2.9883,-2.9899,-2.9925,-2.9941,-2.9925,-2.9997,-3.0003,-3.0009,-3.0031,-3.004,-2.994,-2.994,-2.994,-2.9939,0,-2.9308,-2.9364,-2.94,-2.9473,-2.9513,-2.9568,-2.9611,-2.9648,-2.9666,-2.9699,-2.9771,-2.9821,-2.9886,-2.9908,-2.9926,-2.9994,-2.9989,-2.9989,-2.9976,-3.0016,-3.0038,-3.0047,-2.994,-2.994,-2.994,-2.994,0,0,-2.9347,-2.944,-2.9452,-2.9486,-2.9556,-2.96,-2.9657,-2.972,-2.9751,-2.9803,-2.9852,-2.9932,-2.9933,-2.9971,-2.9994,-3.003,-3.0078,-3.0026,-3.0028,-3.0033,-3.0157,-3.0155,-3.0165,-3.0086,-3.0088,-3.0089,-3.0152,0,-2.9402,-2.9503,-2.9537,-2.9621,-2.9673,-2.9697,-2.9746,-2.9795,-2.9827,-2.9876,-2.9912,-2.9968,-2.9966,-2.9989,-3.0025,-3.0064,-3.0103,-3.006,-3.0131,-3.0133,-3.0114,-3.0176,-3.0175,-3.0231,-3.016,-3.0162,-3.0163,0,-2.9479,-2.9533,-2.9622,-2.9687,-2.971,-2.9754,-2.9816,-2.9863,-2.9919,-2.994,-2.9983,-3.0004,-3.0065,-3.0049,-3.0133,-3.0103,-3.0135,-3.0159,-3.0162,-3.0168,-3.0149,-3.0184,-3.025,-3.0258,-3.0177,-3.0175,-3.0175,0,-2.9498,-2.9593,-2.9659,-2.9687,-2.9764,-2.9795,-2.9828,-2.9883,-2.992,-2.9974,-2.9998,-3.0059,-3.0092,-3.0139,-3.0175,-3.0161,-3.0257,-3.0244,-3.0276,-3.0275,-3.0294,-3.0292,-3.0365,-3.0316,-3.0315,-3.0315,-3.0315,0,-2.9556,-2.9609,-2.9669,-2.9709,-2.977,-2.9809,-2.9869,-2.9904,-2.9953,-3.0001,-3.0025,-3.007,-3.0116,-3.0167,-3.0196,-3.0262,-3.0277,-3.0296,-3.0303,-3.0293,-3.029,-3.0313,-3.031,-3.0318,-3.0317,-3.0317,-3.0316,0,-2.9586,-2.9628,-2.9702,-2.9769,-2.9787,-2.9829,-2.9887,-2.9928,-2.9962,-3.0022,-3.0039,-3.0092,-3.0154,-3.0196,-3.0274,-3.0294,-3.0365,-3.0372,-3.0346,-3.0349,-3.0378,-3.0375,-3.0468,-3.0482,-3.0423,-3.0424,-3.0424,0,-2.962,-2.9662,-2.9734,-2.9768,-2.9802,-2.9856,-2.9894,-2.9934,-2.9972,-3.004,-3.0073,-3.0136,-3.0188,-3.0286,-3.0332,-3.0392,-3.04,-3.0429,-3.0409,-3.0399,-3.04,-3.0397,-3.0401,-3.0431,-3.0431,-3.0432,-3.0432,0,-2.9674,-2.9693,-2.9747,-2.9808,-2.9852,-2.9902,-2.9952,-2.9979,-3.0028,-3.007,-3.0133,-3.0174,-3.0255,-3.0317,-3.0383,-3.0418,-3.0433,-3.0438,-3.0449,-3.0439,-3.0422,-3.0431,-3.0353,-3.0435,-3.0435,-3.0435,-3.0435,-3.0435,-2.9707,-2.9746,-2.9803,-2.9862,-2.9904,-2.9951,-2.9992,-3.0032,-3.0085,-3.0154,-3.0175,-3.024,-3.0297,-3.0386,-3.0423,-3.0475,-3.0473,-3.0488,-3.0492,-3.0495,-3.0494,-3.0414,-3.0487,-3.0487,-3.0487,-3.0487,-3.0487,0,-2.9763,-2.9801,-2.9855,-2.9924,-2.9971,-2.9982,-3.0039,-3.0077,-3.0135,-3.0186,-3.0238,-3.0311,-3.0372,-3.0423,-3.0487,-3.0519,-3.0528,-3.0534,-3.0532,-3.054,-3.0493,-3.0477,-3.0526,-3.0526,-3.0526,-3.0526,-3.0526,-3.0526,-2.9797,-2.9863,-2.9889,-2.9976,-3.0015,-3.0079,-3.011,-3.0154,-3.0195,-3.0276,-3.0327,-3.036,-3.0412,-3.0479,-3.0536,-3.055,-3.0572,-3.0577,-3.0592,-3.0547,-3.0543,-3.0538,-3.0524,-3.0581,-3.0581,-3.0634,-3.0635,-3.0635]},{"header":{"parameterUnit":"m.s-1","parameterCategory":1,"la1":30.2991,"la2":30.254,"lo1":-89.0895,"lo2":-89.0444,"dy":0.0017,"dx":0.0017,"nx":28,"ny":28,"refTime":"2024-03-01T03:00:00:Z","depth":0,"parameterNumber":3,"parameterNumberName":"V-component_of_WINDS"},"data":[0,0,0,0,0,0,0,0,0,0,0,0,0,0,0,0,0,0,0,0,0,0,0,0,0,0,0,0,0,0,0,0,0,0,0,0,0,0,0,0,0,0,0,0,0,0,0,0,0,0,0,0,0,0,0,0,0,0,5.7192,5.7193,0,5.7302,5.7304,5.7305,5.7317,5.7316,5.7315,5.7314,5.7421,5.7425,5.7428,0,0,0,0,0,0,0,0,0,0,0,0,0,5.6986,5.699,5.7192,5.7193,5.7194,5.7302,5.7304,5.7305,5.7317,5.7316,5.7314,5.7313,5.742,5.7424,5.7429,0,0,0,0,0,0,0,0,0,0,0,0,0,5.7084,5.6991,5.7191,5.7214,5.7217,5.7302,5.7304,5.7305,5.7317,5.7316,5.7314,5.7313,5.7418,5.7424,5.7429,5.7498,0,0,5.7447,5.745,0,0,0,0,0,0,0,0,5.7078,5.7091,5.7209,5.7212,5.7216,5.7294,5.727,5.737,5.7318,5.7279,5.7314,5.7312,5.738,5.7388,5.7413,5.7503,5.7508,5.7448,5.7451,5.7454,5.7455,0,0,0,0,0,0,0,5.7071,5.7086,5.7235,5.7211,5.7215,5.7216,5.7228,5.7289,5.7337,5.7282,5.7283,5.7297,5.7381,5.7407,5.7415,5.7509,5.7447,5.7453,5.7456,5.7458,5.7663,5.7665,0,0,0,0,0,0,5.7061,5.7081,5.7232,5.7239,5.7142,5.7221,5.7235,5.7271,5.7336,5.7345,5.7298,5.7297,5.7398,5.7408,5.7419,5.7505,5.7454,5.7459,5.7462,5.7661,5.7663,5.7665,0,0,0,0,0,0,5.7057,5.7075,5.7227,5.716,5.718,5.7227,5.7267,5.7274,5.73,5.7348,5.7356,5.7316,5.7397,5.7411,5.7479,5.7509,5.7462,5.7467,5.7659,5.7662,5.7664,5.7676,0,0,0,0,0,0,5.7051,5.7073,5.7101,5.7161,5.7183,5.7287,5.7269,5.7277,5.731,5.731,5.7367,5.7375,5.7397,5.747,5.7485,5.7516,5.7471,5.7656,5.766,5.7663,5.7673,5.7679,5.7684,0,0,0,0,0,5.7043,5.7098,5.7102,5.712,5.7219,5.7289,5.7301,5.7327,5.7313,5.734,5.7372,5.7373,5.7503,5.7477,5.7494,5.7527,5.7654,5.7659,5.7663,5.7671,5.7678,5.7684,0,0,0,0,0,0,5.7037,5.7106,5.7111,5.7187,5.7232,5.7291,5.7326,5.7333,5.7382,5.7379,5.7407,5.7419,5.7487,5.7513,5.7483,5.7597,5.7577,5.7585,5.7577,5.7585,5.759,5.7582,5.7476,0,0,0,0,0,5.7045,5.7098,5.7154,5.7216,5.7238,5.7278,5.7309,5.7326,5.7372,5.7391,5.7427,5.7471,5.7522,5.7555,5.7604,5.7677,5.769,5.7708,5.7714,5.7718,5.7724,5.7766,5.7774,5.768,5.768,5.768,0,0,5.7061,5.7105,5.7136,5.7216,5.7252,5.7305,5.7294,5.735,5.7388,5.7399,5.7466,5.7495,5.7545,5.7617,5.765,5.7641,5.7753,5.7723,5.7726,5.773,5.7771,5.778,5.7788,5.7683,5.7682,5.7682,0,0,5.7117,5.7156,5.7212,5.725,5.7307,5.7334,5.7347,5.7405,5.7425,5.7494,5.7503,5.7549,5.7635,5.7672,5.7701,5.7773,5.7777,5.7788,5.7816,5.7856,5.7864,5.7871,5.7897,5.7906,5.7795,5.7795,5.7795,0,5.7129,5.7211,5.7239,5.7296,5.733,5.7345,5.7401,5.7436,5.7505,5.7528,5.7517,5.7628,5.7663,5.7743,5.7761,5.7785,5.78,5.7782,5.7861,5.7868,5.7874,5.79,5.7909,5.7796,5.7796,5.7795,5.7795,0,5.7223,5.7279,5.7317,5.7387,5.7426,5.7481,5.7517,5.7553,5.7566,5.7593,5.7663,5.7706,5.7765,5.7785,5.7797,5.7868,5.7861,5.7855,5.7836,5.7884,5.7908,5.7918,5.7797,5.7797,5.7797,5.7796,0,0,5.7277,5.7364,5.7377,5.7409,5.7474,5.7517,5.7573,5.7634,5.7664,5.7711,5.7758,5.7833,5.7829,5.7862,5.7879,5.7914,5.7969,5.7904,5.7906,5.7915,5.805,5.8054,5.8065,5.7972,5.7974,5.7976,5.8046,0,5.7341,5.7445,5.7473,5.7559,5.7612,5.7627,5.7676,5.772,5.7747,5.7794,5.7824,5.7876,5.7867,5.7888,5.7923,5.7955,5.7996,5.795,5.8016,5.8018,5.8003,5.8077,5.8081,5.8146,5.8055,5.8057,5.8058,0,5.7429,5.7481,5.7574,5.7634,5.7657,5.77,5.7758,5.7804,5.7854,5.7871,5.791,5.7924,5.7982,5.796,5.804,5.8008,5.8037,5.8056,5.806,5.8066,5.8041,5.8086,5.8167,5.8176,5.8073,5.8072,5.8071,0,5.746,5.7553,5.7621,5.7648,5.7719,5.775,5.778,5.7829,5.7864,5.7914,5.7936,5.7992,5.8022,5.8064,5.8091,5.8073,5.817,5.815,5.8185,5.8184,5.8204,5.8203,5.8291,5.8223,5.8223,5.8222,5.8222,0,5.7529,5.7585,5.7637,5.7678,5.7742,5.7773,5.7834,5.7865,5.7909,5.7956,5.7971,5.8015,5.8049,5.8097,5.8119,5.8182,5.8195,5.821,5.8216,5.8209,5.8207,5.8228,5.8224,5.8225,5.8224,5.8224,5.8223,0,5.7574,5.7611,5.7686,5.7748,5.7764,5.7808,5.7861,5.7901,5.793,5.7989,5.8005,5.8049,5.8106,5.8138,5.8209,5.8224,5.8295,5.8298,5.8279,5.8281,5.8315,5.8312,5.8419,5.8435,5.8356,5.8357,5.8358,0,5.7615,5.7659,5.7726,5.776,5.7792,5.7846,5.7882,5.7915,5.7952,5.8013,5.8046,5.8105,5.8154,5.8245,5.8282,5.8337,5.8341,5.8375,5.8349,5.8342,5.8342,5.8339,5.8344,5.8379,5.838,5.838,5.8381,0,5.7684,5.7701,5.7754,5.7814,5.7857,5.7905,5.7953,5.7979,5.8019,5.806,5.812,5.8158,5.8232,5.829,5.8349,5.8378,5.8386,5.8389,5.84,5.8394,5.8382,5.8389,5.8291,5.8386,5.8386,5.8385,5.8385,5.8385,5.7729,5.777,5.7824,5.7883,5.7922,5.7967,5.8009,5.8043,5.8095,5.8159,5.8175,5.8238,5.8288,5.8367,5.8399,5.8448,5.8442,5.8457,5.8462,5.8465,5.8467,5.8374,5.8458,5.8458,5.8458,5.8458,5.8458,0,5.78,5.7836,5.789,5.7957,5.8003,5.801,5.8063,5.81,5.8156,5.8203,5.8252,5.8321,5.8378,5.8421,5.8478,5.8509,5.8515,5.8524,5.8521,5.8528,5.8469,5.8454,5.8519,5.8519,5.8519,5.8519,5.8518,5.8518,5.7842,5.7912,5.7935,5.8023,5.8059,5.8123,5.8153,5.8193,5.8231,5.8309,5.8357,5.8385,5.843,5.8492,5.8544,5.8555,5.8575,5.8584,5.8595,5.8539,5.8532,5.8526,5.8512,5.8588,5.8588,5.8651,5.8652,5.8652]}]]